�������l�o���
Date,Time,MP-1(��Sv/h),MP-2(��Sv/h),MP-3(��Sv/h),MP-4(��Sv/h),MP-5(��Sv/h),MP-6(��Sv/h),MP-7(��Sv/h),MP-8(��Sv/h),����,����(m/s),���J
2024/05/16,00:00,0.496,0.755,0.479,0.931,0.670,0.312,0.542,0.510,��,8.0,�L
2024/05/16,00:10,0.495,0.756,0.478,0.929,0.669,0.311,0.541,0.509,��,7.3,�L
2024/05/16,00:20,0.493,0.753,0.477,0.930,0.669,0.311,0.541,0.509,��,8.3,�L
2024/05/16,00:30,0.494,0.752,0.477,0.929,0.668,0.313,0.542,0.507,��,7.4,�L
2024/05/16,00:40,0.495,0.753,0.477,0.929,0.668,0.313,0.539,0.508,��,6.5,�L
2024/05/16,00:50,0.493,0.749,0.477,0.929,0.665,0.312,0.541,0.508,��,6.8,�L
2024/05/16,01:00,0.492,0.749,0.478,0.927,0.666,0.312,0.540,0.506,��,6.1,�L
2024/05/16,01:10,0.493,0.750,0.477,0.927,0.665,0.312,0.540,0.507,��,5.4,�L
2024/05/16,01:20,0.492,0.747,0.476,0.925,0.665,0.312,0.540,0.506,��,5.9,�L
2024/05/16,01:30,0.491,0.749,0.476,0.925,0.663,0.311,0.540,0.506,��,6.7,�L
2024/05/16,01:40,0.490,0.750,0.475,0.925,0.664,0.311,0.540,0.507,��,6.7,��
2024/05/16,01:50,0.492,0.749,0.476,0.924,0.663,0.310,0.540,0.506,��쓌,6.0,�L
2024/05/16,02:00,0.490,0.748,0.476,0.924,0.664,0.308,0.541,0.507,��쓌,4.3,�L
2024/05/16,02:10,0.491,0.751,0.474,0.924,0.664,0.309,0.539,0.508,��쓌,4.1,�L
2024/05/16,02:20,0.491,0.749,0.476,0.924,0.664,0.310,0.539,0.509,��쓌,3.9,��
2024/05/16,02:30,0.490,0.749,0.474,0.922,0.662,0.310,0.540,0.508,��,4.8,��
2024/05/16,02:40,0.490,0.749,0.475,0.923,0.664,0.309,0.542,0.508,��쓌,4.3,��
2024/05/16,02:50,0.491,0.748,0.475,0.923,0.663,0.309,0.540,0.507,��쓌,4.5,��
2024/05/16,03:00,0.489,0.748,0.473,0.922,0.664,0.309,0.540,0.508,��,3.2,�L
2024/05/16,03:10,0.488,0.749,0.472,0.922,0.663,0.310,0.540,0.508,��,4.2,�L
2024/05/16,03:20,0.489,0.751,0.474,0.923,0.664,0.309,0.540,0.507,��,3.1,�L
2024/05/16,03:30,0.490,0.749,0.473,0.923,0.665,0.309,0.542,0.508,��,3.6,�L
2024/05/16,03:40,0.490,0.749,0.472,0.921,0.664,0.308,0.542,0.506,��,5.2,�L
2024/05/16,03:50,0.489,0.749,0.474,0.924,0.662,0.310,0.541,0.507,��쓌,6.6,��
2024/05/16,04:00,0.490,0.749,0.473,0.923,0.664,0.309,0.541,0.508,��,6.1,��
2024/05/16,04:10,0.490,0.748,0.472,0.923,0.663,0.308,0.540,0.508,��,5.9,��
2024/05/16,04:20,0.488,0.748,0.472,0.924,0.664,0.310,0.541,0.508,��,5.9,��
2024/05/16,04:30,0.489,0.749,0.472,0.924,0.664,0.309,0.539,0.507,��,4.9,��
2024/05/16,04:40,0.490,0.748,0.474,0.922,0.664,0.308,0.541,0.508,��,4.4,��
2024/05/16,04:50,0.489,0.747,0.474,0.924,0.664,0.309,0.542,0.508,��,4.0,��
2024/05/16,05:00,0.489,0.746,0.474,0.924,0.665,0.308,0.541,0.507,��,4.4,��
2024/05/16,05:10,0.488,0.750,0.473,0.922,0.665,0.310,0.541,0.506,��,3.8,��
2024/05/16,05:20,0.488,0.748,0.472,0.922,0.664,0.309,0.540,0.509,��쓌,4.1,��
2024/05/16,05:30,0.490,0.749,0.473,0.924,0.664,0.311,0.541,0.508,��,3.7,�L
2024/05/16,05:40,0.488,0.748,0.474,0.922,0.664,0.310,0.540,0.507,��,4.0,��
2024/05/16,05:50,0.488,0.749,0.473,0.924,0.664,0.310,0.540,0.506,��,2.8,��
2024/05/16,06:00,0.488,0.748,0.473,0.923,0.666,0.309,0.540,0.508,��,3.1,�L
2024/05/16,06:10,0.490,0.748,0.474,0.922,0.662,0.311,0.540,0.509,��,2.5,�L
2024/05/16,06:20,0.489,0.749,0.474,0.921,0.666,0.310,0.541,0.508,��쓌,1.5,�L
2024/05/16,06:30,0.489,0.750,0.473,0.922,0.664,0.310,0.539,0.508,��쓌,1.5,�L
2024/05/16,06:40,0.490,0.749,0.473,0.923,0.665,0.309,0.540,0.509,�쓌,1.7,�L
2024/05/16,06:50,0.491,0.750,0.473,0.923,0.665,0.310,0.540,0.508,�쓌,1.9,�L
2024/05/16,07:00,0.491,0.749,0.475,0.921,0.666,0.310,0.540,0.509,���쓌,1.2,�L
2024/05/16,07:10,0.490,0.748,0.474,0.924,0.666,0.309,0.539,0.507,���쓌,0.6,�L
2024/05/16,07:20,0.491,0.749,0.475,0.925,0.666,0.308,0.539,0.507,���쓌,0.6,�L
2024/05/16,07:30,0.490,0.750,0.474,0.923,0.664,0.308,0.538,0.507,���k��,1.2,�L
2024/05/16,07:40,0.489,0.746,0.472,0.924,0.662,0.308,0.538,0.505,�k�k��,1.2,�L
2024/05/16,07:50,0.488,0.746,0.471,0.922,0.661,0.309,0.537,0.506,�k�k��,1.9,�L
2024/05/16,08:00,0.487,0.743,0.472,0.924,0.661,0.307,0.537,0.506,�k,2.3,�L
2024/05/16,08:10,0.486,0.743,0.471,0.920,0.660,0.309,0.538,0.506,�k,2.8,�L
2024/05/16,08:20,0.485,0.743,0.471,0.921,0.660,0.308,0.538,0.504,�k,3.1,�L
2024/05/16,08:30,0.487,0.741,0.470,0.921,0.660,0.309,0.537,0.504,�k,3.4,�L
2024/05/16,08:40,0.486,0.742,0.471,0.920,0.658,0.309,0.536,0.504,�k,3.7,�L
2024/05/16,08:50,0.485,0.740,0.470,0.922,0.659,0.308,0.537,0.503,�k�k��,3.5,�L
2024/05/16,09:00,0.485,0.739,0.470,0.921,0.659,0.309,0.535,0.505,�k,3.4,�L
2024/05/16,09:10,0.486,0.739,0.471,0.920,0.658,0.308,0.537,0.504,�k,3.3,�L
2024/05/16,09:20,0.484,0.736,0.471,0.916,0.656,0.308,0.536,0.505,�k�k��,4.1,�L
2024/05/16,09:30,0.484,0.737,0.470,0.915,0.656,0.308,0.537,0.505,�k�k��,4.9,�L
2024/05/16,09:40,0.483,0.736,0.468,0.915,0.655,0.307,0.536,0.505,�k�k��,4.8,�L
2024/05/16,09:50,0.484,0.736,0.467,0.915,0.654,0.308,0.536,0.504,�k�k��,4.9,�L
2024/05/16,10:00,0.483,0.732,0.467,0.915,0.654,0.307,0.535,0.503,�k�k��,5.1,�L
2024/05/16,10:10,0.481,0.732,0.469,-,0.654,0.309,0.535,0.504,�k�k��,5.7,�L
2024/05/16,10:20,0.482,0.731,0.466,-,0.654,0.308,0.537,0.502,�k�k��,4.6,�L
2024/05/16,10:30,0.481,0.732,0.467,-,0.654,0.308,0.536,0.503,�k�k��,5.1,�L
2024/05/16,10:40,0.481,0.732,0.467,-,0.653,0.307,0.536,0.502,�k�k��,5.9,�L
2024/05/16,10:50,0.480,0.732,0.467,-,0.653,0.306,0.537,0.504,�k�k��,6.7,�L
2024/05/16,11:00,0.479,0.729,0.466,-,0.654,0.307,0.536,0.501,�k�k��,5.5,�L
2024/05/16,11:10,0.483,0.730,0.469,-,0.653,0.306,0.536,0.504,�k�k��,5.3,�L
2024/05/16,11:20,0.481,0.730,0.466,-,0.652,0.307,0.536,0.503,�k�k��,5.3,�L
2024/05/16,11:30,0.480,0.730,0.466,-,0.651,0.307,0.537,0.502,�k�k��,5.0,�L
2024/05/16,11:40,0.480,0.730,0.467,-,0.650,0.306,0.536,0.503,�k�k��,4.8,�L
2024/05/16,11:50,0.478,0.729,0.465,-,0.653,0.306,0.537,0.504,�k�k��,5.8,�L
2024/05/16,12:00,0.479,0.730,0.466,-,0.653,0.306,0.537,0.503,�k�k��,6.5,�L
2024/05/16,12:10,0.481,0.731,0.467,-,0.652,0.307,0.538,0.503,�k�k��,4.2,�L
2024/05/16,12:20,0.480,0.731,0.467,-,0.654,0.307,0.535,0.504,�k�k��,4.9,�L
2024/05/16,12:30,0.481,0.729,0.469,-,0.652,0.308,0.536,0.505,�k�k��,4.2,�L
2024/05/16,12:40,0.479,0.728,0.469,-,0.656,0.306,0.536,0.504,�k�k��,4.3,��
2024/05/16,12:50,0.482,0.732,0.469,-,0.652,0.306,0.537,0.504,�k,5.0,�L
2024/05/16,13:00,0.479,0.732,0.469,-,0.653,0.306,0.537,0.504,�k,5.2,��
2024/05/16,13:10,0.478,0.732,0.470,-,0.653,0.307,0.537,0.504,�k�k��,5.1,�L
2024/05/16,13:20,0.481,0.732,0.468,-,0.652,0.306,0.537,0.504,�k�k��,4.5,�L
2024/05/16,13:30,0.481,0.732,0.467,-,0.651,0.306,0.535,0.503,�k�k��,3.5,��
2024/05/16,13:40,0.480,0.731,0.468,-,0.652,0.306,0.536,0.502,�k�k��,3.9,��
2024/05/16,13:50,0.481,0.732,0.468,-,0.653,0.307,0.536,0.504,�k,3.2,��
2024/05/16,14:00,0.481,0.731,0.467,-,0.654,0.307,0.536,0.504,�k�k��,2.8,��
2024/05/16,14:10,0.481,0.734,0.468,-,0.653,0.305,0.538,0.504,�k,3.6,��
2024/05/16,14:20,0.483,0.734,0.469,-,0.655,0.308,0.537,0.505,�k�k��,3.4,��
2024/05/16,14:30,0.482,0.732,0.468,0.909,0.656,0.306,0.537,0.504,�k,3.7,��
2024/05/16,14:40,0.482,0.734,0.466,0.908,0.656,0.307,0.537,0.503,�k�k��,3.4,��
2024/05/16,14:50,0.481,0.735,0.468,0.909,0.656,0.308,0.536,0.505,�k�k��,3.4,��
2024/05/16,15:00,0.482,0.735,0.467,0.906,0.655,0.307,0.537,0.505,�k�k��,3.3,��
2024/05/16,15:10,0.482,0.735,0.467,0.907,0.656,0.306,0.537,0.505,�k��,3.0,��
2024/05/16,15:20,0.483,0.736,0.468,0.908,0.654,0.308,0.538,0.506,�k��,2.2,��
2024/05/16,15:30,0.482,0.735,0.469,0.905,0.658,0.308,0.538,0.505,���k��,1.7,��
2024/05/16,15:40,0.483,0.734,0.468,0.909,0.655,0.307,0.537,0.504,�쓌,2.6,��
2024/05/16,15:50,0.484,0.736,0.468,0.907,0.655,0.307,0.537,0.505,�쓌,2.9,�L
2024/05/16,16:00,0.484,0.736,0.468,0.908,0.656,0.307,0.539,0.504,�쓌,2.6,��
2024/05/16,16:10,0.484,0.734,0.467,0.909,0.656,0.309,0.538,0.505,��쓌,3.9,��
2024/05/16,16:20,0.483,0.735,0.467,0.910,0.657,0.306,0.538,0.505,��쓌,4.9,��
2024/05/16,16:30,0.482,0.736,0.468,0.909,0.655,0.307,0.537,0.505,��쓌,5.7,��
2024/05/16,16:40,0.482,0.736,0.468,0.909,0.655,0.308,0.537,0.505,��,5.4,��
2024/05/16,16:50,0.483,0.736,0.467,0.910,0.657,0.307,0.537,0.505,��쓌,4.1,��
2024/05/16,17:00,0.483,0.735,0.468,0.909,0.657,0.307,0.539,0.503,��,7.6,��
2024/05/16,17:10,0.482,0.737,0.470,0.909,0.655,0.307,0.538,0.505,��,9.3,��
2024/05/16,17:20,0.483,0.735,0.470,0.910,0.657,0.307,0.538,0.505,��,10.2,��
2024/05/16,17:30,0.482,0.736,0.469,0.910,0.658,0.308,0.539,0.507,��,9.7,��
2024/05/16,17:40,0.485,0.736,0.470,0.910,0.656,0.307,0.540,0.506,��,9.6,��
2024/05/16,17:50,0.484,0.736,0.468,0.908,0.657,0.308,0.538,0.505,��,9.0,��
2024/05/16,18:00,0.484,0.738,0.468,0.910,0.657,0.307,0.538,0.504,��,8.3,��
2024/05/16,18:10,0.485,0.737,0.471,0.911,0.656,0.306,0.537,0.505,��,6.9,��
2024/05/16,18:20,0.484,0.739,0.470,0.910,0.659,0.308,0.540,0.508,��,5.7,��
2024/05/16,18:30,0.484,0.739,0.471,0.910,0.658,0.309,0.540,0.508,��쓌,5.2,��
2024/05/16,18:40,0.485,0.740,0.473,0.910,0.659,0.308,0.539,0.508,��,5.6,��
2024/05/16,18:50,0.485,0.742,0.470,0.911,0.659,0.308,0.539,0.508,��,5.9,��
2024/05/16,19:00,0.486,0.742,0.472,0.912,0.657,0.308,0.541,0.507,��,5.3,��
2024/05/16,19:10,0.486,0.740,0.471,0.910,0.660,0.309,0.539,0.507,��,3.8,��
2024/05/16,19:20,0.486,0.742,0.472,0.910,0.660,0.309,0.540,0.508,��쐼,3.9,��
2024/05/16,19:30,0.486,0.741,0.472,0.909,0.659,0.310,0.541,0.508,��,4.8,��
2024/05/16,19:40,0.486,0.741,0.473,0.910,0.660,0.310,0.542,0.508,��,5.9,��
2024/05/16,19:50,0.485,0.741,0.471,0.909,0.660,0.310,0.542,0.508,��,3.6,��
2024/05/16,20:00,0.488,0.740,0.472,0.910,0.662,0.309,0.542,0.508,��,3.7,��
2024/05/16,20:10,0.486,0.741,0.473,0.909,0.662,0.310,0.542,0.508,��,6.0,��
2024/05/16,20:20,0.486,0.740,0.471,0.911,0.660,0.310,0.542,0.507,��,7.7,��
2024/05/16,20:30,0.487,0.742,0.471,0.910,0.662,0.311,0.540,0.507,��,9.1,��
2024/05/16,20:40,0.487,0.743,0.471,0.910,0.660,0.311,0.541,0.508,��,8.5,��
2024/05/16,20:50,0.486,0.741,0.472,0.910,0.661,0.311,0.543,0.507,��,8.6,��
2024/05/16,21:00,0.486,0.742,0.472,0.911,0.663,0.311,0.542,0.509,��,8.5,��
2024/05/16,21:10,0.485,0.740,0.472,0.910,0.663,0.311,0.539,0.509,��,7.6,��
2024/05/16,21:20,0.487,0.742,0.472,0.911,0.662,0.310,0.543,0.507,��,7.9,��
2024/05/16,21:30,0.487,0.741,0.473,0.910,0.662,0.309,0.543,0.508,��,6.7,��
2024/05/16,21:40,0.486,0.743,0.472,0.912,0.660,0.309,0.542,0.507,��,8.0,��
2024/05/16,21:50,0.487,0.739,0.472,0.911,0.660,0.310,0.543,0.506,��,6.7,��
2024/05/16,22:00,0.488,0.742,0.472,0.912,0.661,0.310,0.543,0.507,��,1.9,��
2024/05/16,22:10,0.489,0.742,0.470,0.911,0.663,0.311,0.543,0.509,���k��,3.4,��
2024/05/16,22:20,0.486,0.741,0.471,0.909,0.661,0.310,0.543,0.507,���k��,5.9,��
2024/05/16,22:30,0.486,0.741,0.471,0.912,0.663,0.311,0.543,0.509,���k��,7.2,��
2024/05/16,22:40,0.487,0.741,0.471,0.911,0.661,0.311,0.542,0.507,��,7.5,��
2024/05/16,22:50,0.487,0.743,0.471,0.912,0.662,0.310,0.542,0.507,��,6.8,��
2024/05/16,23:00,0.488,0.743,0.472,0.914,0.661,0.308,0.540,0.509,��,7.8,��
2024/05/16,23:10,0.487,0.742,0.470,0.912,0.661,0.309,0.541,0.508,��,6.6,��
2024/05/16,23:20,0.488,0.742,0.471,0.912,0.660,0.309,0.540,0.508,��,6.3,��
2024/05/16,23:30,0.486,0.742,0.471,0.913,0.662,0.309,0.542,0.510,��,7.0,��
2024/05/16,23:40,0.487,0.743,0.472,0.913,0.660,0.308,0.543,0.508,���k��,6.8,��
2024/05/16,23:50,0.487,0.742,0.472,0.913,0.662,0.309,0.542,0.509,���k��,7.4,��
